Charlottesville, VA

9:04 PM EDT on October 16, 2019 (GMT -0400)
Charlottesville-Albemarle

Weather History for KCHO - August, 2019

Change the Weather History Date:

Saturday, August 10, 2019

  Actual Average Record
Temperature  
Mean Temperature 74 °F 75 °F  
Max Temperature 86 °F 85 °F 98 °F (1987)
Min Temperature 61 °F 64 °F 52 °F (2002)
Degree Days  
Heating Degree Days 0 0  
Month to date heating degree days 0 0  
Since 1 June heating degree days 0 12  
Since 1 July heating degree days 0 1  
Cooling Degree Days 9 10  
Month to date cooling degree days 137 100  
Year to date cooling degree days 1205 730  
Since 1 June cooling degree days 919 644  
Growing Degree Days 24 (Base 50)    
Moisture  
Dew Point 57 °F    
Average Humidity 61    
Maximum Humidity 84    
Minimum Humidity 37    
Precipitation  
Precipitation 0.00 in 0.13 in 1.64 in (2012)
Month to date precipitation 0.52 1.40  
Year to date precipitation 25.82 25.92  
Sea Level Pressure  
Sea Level Pressure 29.93 in    
Wind  
Wind Speed 2 mph (NNW)    
Max Wind Speed 9 mph    
Max Gust Speed 13 mph    
Visibility 10 miles    
Events      
T = Trace of Precipitation, MM = Missing Value Source: NWS Daily Summary

Daily Weather History Graph

Daily Weather History Graph

Search for Another Location

Airport or City:

Astronomy

Aug. 10, 2019 Rise Set
Actual Time 6:24 AM EDT 8:13 PM EDT
Civil Twilight 5:55 AM EDT 8:42 PM EDT
Nautical Twilight 5:20 AM EDT 9:16 PM EDT
Astronomical Twilight 4:43 AM EDT 9:53 PM EDT
Moon 4:52 PM EDT (8/10) 2:00 AM EDT (8/10)
Length of Visible Light 14h 46m
Length of Day
13h 49m
Waxing Gibbous, 79% of the Moon is Illuminated
Aug 10
Waxing Gibbous
Aug 15
Full
Aug 23
Last Quarter
Aug 30
New
Sep 5
First Quarter

Hourly Weather History & Observations

Time (EDT) Temp. Heat Index Dew Point Humidity Pressure Visibility Wind Dir Wind Speed Gust Speed Precip Events Conditions
12:53 AM 71.1 °F - 55.0 °F 57% 29.90 in 10.0 mi Calm Calm - N/A   Clear
1:53 AM 66.9 °F - 55.0 °F 66% 29.90 in 10.0 mi Calm Calm - N/A   Clear
2:53 AM 66.9 °F - 54.0 °F 63% 29.90 in 10.0 mi South 4.6 mph - N/A   Clear
3:53 AM 68.0 °F - 55.0 °F 63% 29.91 in 10.0 mi Calm Calm - N/A   Clear
4:53 AM 66.0 °F - 55.0 °F 68% 29.91 in 10.0 mi Calm Calm - N/A   Clear
5:53 AM 62.1 °F - 55.9 °F 80% 29.92 in 10.0 mi Calm Calm - N/A   Clear
6:53 AM 63.0 °F - 57.0 °F 81% 29.93 in 10.0 mi Calm Calm - N/A   Clear
7:53 AM 68.0 °F - 57.9 °F 70% 29.95 in 10.0 mi Calm Calm - N/A   Clear
8:53 AM 69.1 °F - 59.0 °F 70% 29.96 in 10.0 mi Calm Calm - N/A   Clear
9:53 AM 75.0 °F - 57.9 °F 55% 29.96 in 10.0 mi Calm Calm - N/A   Clear
10:53 AM 79.0 °F - 57.9 °F 48% 29.97 in 10.0 mi West 3.5 mph - N/A   Clear
11:53 AM 81.0 °F 80.7 °F 55.0 °F 41% 29.96 in 10.0 mi NNE 3.5 mph - N/A   Clear
12:53 PM 81.0 °F 80.4 °F 53.1 °F 38% 29.95 in 10.0 mi Calm Calm - N/A   Clear
1:53 PM 82.9 °F 82.4 °F 57.0 °F 41% 29.92 in 10.0 mi Variable 4.6 mph - N/A   Clear
2:53 PM 82.0 °F 81.4 °F 55.0 °F 39% 29.91 in 10.0 mi Variable 5.8 mph - N/A   Clear
3:53 PM 82.0 °F 82.1 °F 59.0 °F 45% 29.90 in 10.0 mi NW 3.5 mph - N/A   Clear
4:53 PM 84.0 °F 83.8 °F 59.0 °F 43% 29.88 in 10.0 mi Variable 4.6 mph - N/A   Clear
5:53 PM 86.0 °F 85.0 °F 57.9 °F 38% 29.88 in 10.0 mi NW 3.5 mph - N/A   Clear
6:53 PM 84.0 °F 83.8 °F 59.0 °F 43% 29.88 in 10.0 mi Calm Calm - N/A   Partly Cloudy
7:53 PM 80.1 °F 81.1 °F 61.0 °F 52% 29.89 in 10.0 mi Calm Calm - N/A   Clear
8:53 PM 73.9 °F - 63.0 °F 68% 29.93 in 10.0 mi NNE 3.5 mph - N/A   Clear
9:53 PM 73.0 °F - 61.0 °F 66% 29.96 in 10.0 mi NNW 3.5 mph - N/A   Mostly Cloudy
10:53 PM 71.1 °F - 60.1 °F 68% 29.97 in 10.0 mi North 3.5 mph - N/A   Clear
11:53 PM 68.0 °F - 59.0 °F 73% 29.99 in 10.0 mi NW 3.5 mph - N/A   Mostly Cloudy